Preview of NWS' New Version of Forecast
This preview is not operational and should not be used for support decisions.

Regional Weather Roundup (RWR)

Issued by Gray - Portland, ME (GYX)

                            
318 
ASUS41 KGYX 201810
RWRGYX
WEATHER ROUNDUP FOR MAINE AND NEW HAMPSHIRE
NATIONAL WEATHER SERVICE GRAY ME
200 PM EDT FRI APR 20 2018

MEZ002-005-006-010-012-015-018-020-021-024-026-027-029-201900-
MAINE
  
CITY           SKY/WX    TMP DP  RH WIND       PRES   REMARKS
PORTLAND       PTSUNNY   50  30  46 NW20G30   29.97R                  
6HR MIN TEMP:  38; 6HR MAX TEMP:  52;                                

SANFORD        CLOUDY    48  27  44 NW15G24   29.99R                  
BAR HARBOR     LGT RAIN  43  38  82 NW9G18    29.91R                  
WISCASSET      CLOUDY    50  28  42 VRB5      29.95R                  
6HR MIN TEMP:  37; 6HR MAX TEMP:  53;                                

ROCKLAND       CLOUDY    49  31  49 NW8       29.92R                  
FRYEBURG       PTSUNNY   46  30  53 W14G24    30.01R                  
6HR MIN TEMP:  41; 6HR MAX TEMP:  49;                                

LEWISTONAUBURN CLOUDY    48  28  46 NW23G31   29.96R                  
AUGUSTA        CLOUDY    48  27  44 N15       29.93R                  
6HR MIN TEMP:  37; 6HR MAX TEMP:  50;                                

WATERVILLE     CLOUDY    48  28  46 N14G23    29.91R                  
BANGOR         CLOUDY    48  33  56 NW8       29.91R                  
6HR MIN TEMP:  37; 6HR MAX TEMP:  48; 6HR PCP:  0.04;                

GREENVILLE       N/A     40  32  73 NW12G20   29.88R                  
6HR MIN TEMP:  31; 6HR MAX TEMP:  40; 6HR PCP:  0.02;                

MILLINOCKET    CLOUDY    46  31  55 NW10G16   29.91R                  
6HR MIN TEMP:  35; 6HR MAX TEMP:  47; 6HR PCP:  0.04;                

HOULTON        PTSUNNY   42  30  62 N12       29.87R                  
6HR MIN TEMP:  33; 6HR MAX TEMP:  42; 6HR PCP:  0.02;                

PRESQUE ISLE   FAIR      42  31  64 N13       29.91R                  
6HR MIN TEMP:  34; 6HR MAX TEMP:  42; 6HR PCP: TRACE;                

FRENCHVILLE    LGT RAIN  41  33  73 N9        29.89S                  
6HR MIN TEMP:  35; 6HR MAX TEMP:  41; 6HR PCP:  0.01;                

CARIBOU        FAIR      43  31  62 N6        29.89R                  
6HR MIN TEMP:  34; 6HR MAX TEMP:  43; 6HR PCP: TRACE;                

$$

NHZ002-005-008-009-011-012-014-201900-
NEW HAMPSHIRE
  
CITY           SKY/WX    TMP DP  RH WIND       PRES   REMARKS
PORTSMOUTH     PTSUNNY   51  27  40 W16G22    29.99R                  
ROCHESTER      FAIR      49  29  46 NW17G30   30.00R                  
6HR MIN TEMP:  40; 6HR MAX TEMP:  50;                                

NASHUA         FAIR      49  26  41 NW21G29   30.05R                  
MANCHESTER     FAIR      51  25  36 NW21G31   30.04R                  
6HR MIN TEMP:  41; 6HR MAX TEMP:  51;                                

CONCORD        PTSUNNY   49  27  42 NW16G26   30.05R                  
6HR MIN TEMP:  37; 6HR MAX TEMP:  50;                                

LACONIA        PTSUNNY   44  27  51 W10G22    30.05R                  
PLYMOUTH       CLOUDY    41  29  63 W8G23     30.07R                  
BERLIN         LGT SNOW  37  31  78 W8G18     30.02R                  
6HR MIN TEMP:  33; 6HR MAX TEMP:  39; 6HR PCP: TRACE;                

WHITEFIELD     CLOUDY    37  28  70 NW15G21   30.06R                  
6HR MIN TEMP:  32; 6HR MAX TEMP:  37; 6HR PCP:  0.12;                

JAFFREY        FAIR      45  27  49 NW12G24   30.06R                  
6HR MIN TEMP:  34; 6HR MAX TEMP:  46;                                

KEENE          CLOUDY    47  26  44 NW14G23   30.09R                  
LEBANON        CLOUDY    45  26  47 NW16G24   30.10R                  
6HR MIN TEMP:  36; 6HR MAX TEMP:  45;                                

MT WASHINGTON  SNOWSHWR  18  18 100 NW59G69     N/A  VSB 0   WCI  -7  
6HR MIN TEMP:  11; 6HR MAX TEMP:  18; 6HR PCP:  0.15;                

$$

VTZ005-007-008-201900-
VERMONT
  
CITY           SKY/WX    TMP DP  RH WIND       PRES   REMARKS
ST JOHNSBURY     N/A     37  29  72 MISG      30.09R                  
MONTPELIER     CLOUDY    33  28  81 NW18G30   30.15R                  
BURLINGTON     CLOUDY    38  27  64 W13G22    30.18R                  
$$

MAZ007-012-024-CTZ003-RIZ002-NYZ038-NYZ072-201900-
SOUTHERN NEW ENGLAND AND NY
  
CITY           SKY/WX    TMP DP  RH WIND       PRES   REMARKS
BOSTON         PTSUNNY   51  28  41 NW17G29   30.03R                  
WORCESTER      FAIR      46  25  43 N15G28    30.04R                  
NANTUCKET      FAIR      51  31  46 NW10G20   30.03R                  
PROVIDENCE     FAIR      52  28  39 NW17G25   30.05S                  
HARTFORD       PTSUNNY   50  25  37 NW14G20   30.11R                  
ALBANY         PTSUNNY   45  23  42 W20G31    30.20R                  
NEW YORK CITY  FAIR      50  24  36 NW18G25   30.18R                  
$$

ANZ081-ANZ082-ANZ150-NHZ014-MEZ023>029-201900-
COASTAL MARINE OBSERVATIONS
  
STATION/POSITION TIME  TEMP    WIND        PRES    WAVE
                       AIR SEA DIR/SP/G            HT/PER
                 (UTC) (F)     (DEG/KT/KT) (MB)    (FT/S)
MOUNT DESERT ROC 1800   41     310/  7/  8 1013.0R
MATINICUS ROCK   1800   45     340/ 10/ 11 1013.0R
ISLE OF SHOALS   1800   46     310/ 19/ 22 1015.4R
JEFFREYS LEDGE   1736      41                N/A     3/ 4
CASHES LEDGE BUO 1750   44 41              1013.8R   4/11
$$

.............KEY..............
   WCI - WIND CHILL
   TC  - TEMPERATURE IN CELSIUS
   VSB - VISIBILITY IN MILES
   HX  - HEAT INDEX
   FAIR- INDICATES FEW OR NO CLOUDS BELOW 12,000 FT, WITH NO 
         SIGNIFICANT WEATHER AND/OR OBSTRUCTIONS TO VISIBILITY.